THY3ZY LDZA-LTFM

Flight info

Callsign THY3ZY
Flight time N/A
Altitude 33000
Route TEBLI DCT TIVNU DCT UZVEZ DCT MITNO DCT NISVA DCT DEDIN L614 GERGI T391 AYTEK
Aircraft A321/M-SDE3FGHIRWY/LB1

Departure

Time N/A
Airport Zagreb Franjo Tuđman International Airport (LDZA)

Arrival

Time 2026-05-05 22:31
Airport İstanbul Airport (LTFM)
Time Latitude Longitude Altitude Speed Heading
2026-05-05 22:09 41.50310 27.11964 23662 ft 395 kts 117°
2026-05-05 22:09 41.49005 27.15171 23242 ft 392 kts 117°
2026-05-05 22:10 41.47708 27.18352 22803 ft 389 kts 117°
2026-05-05 22:10 41.46417 27.21509 22384 ft 386 kts 117°
2026-05-05 22:10 41.45135 27.24644 21943 ft 384 kts 117°
2026-05-05 22:10 41.43863 27.27761 21508 ft 381 kts 117°
2026-05-05 22:11 41.42598 27.30853 21062 ft 379 kts 117°
2026-05-05 22:11 41.41338 27.33917 20623 ft 376 kts 117°
2026-05-05 22:11 41.40088 27.36959 20189 ft 373 kts 117°
2026-05-05 22:11 41.38866 27.39934 19742 ft 370 kts 117°
2026-05-05 22:12 41.37632 27.42931 19299 ft 367 kts 117°
2026-05-05 22:12 41.36407 27.45900 18857 ft 365 kts 117°
2026-05-05 22:12 41.35186 27.48843 18418 ft 362 kts 117°
2026-05-05 22:12 41.33976 27.51759 17975 ft 359 kts 117°
2026-05-05 22:13 41.32775 27.54660 17539 ft 356 kts 117°
2026-05-05 22:13 41.31589 27.57535 17106 ft 353 kts 117°
2026-05-05 22:13 41.30413 27.60385 16677 ft 350 kts 117°
2026-05-05 22:13 41.29245 27.63211 16249 ft 347 kts 117°
2026-05-05 22:14 41.28083 27.66014 15820 ft 345 kts 117°
2026-05-05 22:14 41.26930 27.68796 15398 ft 342 kts 117°
2026-05-05 22:14 41.25783 27.71554 14978 ft 340 kts 117°
2026-05-05 22:14 41.24642 27.74288 14561 ft 337 kts 117°
2026-05-05 22:15 41.23523 27.76968 14149 ft 335 kts 117°
2026-05-05 22:15 41.22398 27.79664 13737 ft 332 kts 117°
2026-05-05 22:15 41.21286 27.82340 13328 ft 330 kts 117°
2026-05-05 22:15 41.20179 27.85005 12855 ft 330 kts 117°
2026-05-05 22:16 41.19073 27.87662 12438 ft 328 kts 117°
2026-05-05 22:16 41.17970 27.90298 12028 ft 325 kts 117°
2026-05-05 22:16 41.16874 27.92913 11637 ft 323 kts 117°
2026-05-05 22:16 41.15784 27.95515 11231 ft 321 kts 117°
2026-05-05 22:17 41.14702 27.98094 10837 ft 319 kts 117°
2026-05-05 22:17 41.13623 28.00653 10449 ft 317 kts 117°
2026-05-05 22:17 41.12556 28.03185 10188 ft 310 kts 117°
2026-05-05 22:17 41.11521 28.05639 10032 ft 300 kts 117°
2026-05-05 22:18 41.10525 28.08002 9796 ft 294 kts 117°
2026-05-05 22:18 41.09530 28.10365 9473 ft 294 kts 117°
2026-05-05 22:18 41.08531 28.12738 9042 ft 295 kts 118°
2026-05-05 22:18 41.07534 28.15103 8660 ft 294 kts 117°
2026-05-05 22:19 41.06539 28.17466 8357 ft 291 kts 118°
2026-05-05 22:19 41.05556 28.19800 8002 ft 289 kts 118°
2026-05-05 22:19 41.04580 28.22120 7680 ft 286 kts 118°
2026-05-05 22:19 41.03620 28.24395 7557 ft 279 kts 118°
2026-05-05 22:20 41.02691 28.26594 7431 ft 269 kts 118°
2026-05-05 22:20 41.01794 28.28714 7302 ft 259 kts 118°
2026-05-05 22:20 41.00923 28.30759 7176 ft 251 kts 118°
2026-05-05 22:20 41.00070 28.32762 7049 ft 249 kts 118°
2026-05-05 22:21 40.99223 28.34757 6929 ft 248 kts 118°
2026-05-05 22:21 40.98382 28.36744 6800 ft 247 kts 118°
2026-05-05 22:21 40.97725 28.38798 6677 ft 245 kts 102°
2026-05-05 22:21 40.97566 28.41028 6553 ft 244 kts 88°
2026-05-05 22:22 40.97583 28.43266 6424 ft 243 kts 88°
2026-05-05 22:22 40.97589 28.45506 6303 ft 243 kts 89°
2026-05-05 22:22 40.97593 28.47740 6177 ft 242 kts 89°
2026-05-05 22:22 40.97597 28.49966 6052 ft 242 kts 89°
2026-05-05 22:23 40.97600 28.52194 5864 ft 241 kts 89°
2026-05-05 22:23 40.97603 28.54409 5658 ft 240 kts 89°
2026-05-05 22:23 40.97606 28.56614 5460 ft 239 kts 89°
2026-05-05 22:23 40.97606 28.58778 5285 ft 230 kts 89°
2026-05-05 22:24 40.97605 28.60875 5097 ft 226 kts 89°
2026-05-05 22:24 40.97603 28.62927 5002 ft 226 kts 89°
2026-05-05 22:24 40.97603 28.65002 5006 ft 226 kts 89°
2026-05-05 22:24 40.97606 28.67082 5008 ft 226 kts 89°
2026-05-05 22:25 40.97607 28.69164 5007 ft 226 kts 89°
2026-05-05 22:25 40.97845 28.71197 5004 ft 224 kts 64°
2026-05-05 22:25 40.98831 28.72719 5006 ft 219 kts 31°
2026-05-05 22:25 41.00268 28.73254 5011 ft 217 kts
2026-05-05 22:26 41.01784 28.73264 4962 ft 218 kts 359°
2026-05-05 22:26 41.03296 28.73224 4737 ft 216 kts 359°
2026-05-05 22:26 41.04766 28.73191 4486 ft 206 kts 359°
2026-05-05 22:26 41.06166 28.73163 4198 ft 196 kts 359°
2026-05-05 22:27 41.07502 28.73138 3940 ft 188 kts 359°
2026-05-05 22:27 41.08773 28.73113 3698 ft 182 kts 359°
2026-05-05 22:27 41.10016 28.73089 3462 ft 176 kts 359°
2026-05-05 22:27 41.11222 28.73066 3233 ft 171 kts 359°
2026-05-05 22:28 41.12396 28.73043 3007 ft 166 kts 359°
2026-05-05 22:28 41.13543 28.73021 2788 ft 163 kts 359°
2026-05-05 22:28 41.14672 28.72999 2576 ft 162 kts 359°
2026-05-05 22:28 41.15789 28.72978 2386 ft 160 kts 359°
2026-05-05 22:29 41.16895 28.72956 2165 ft 155 kts 359°
2026-05-05 22:29 41.17968 28.72936 1952 ft 153 kts 359°
2026-05-05 22:29 41.19030 28.72915 1743 ft 152 kts 359°
2026-05-05 22:29 41.20047 28.72896 1539 ft 151 kts 359°
2026-05-05 22:30 41.21118 28.72875 1335 ft 151 kts 359°
2026-05-05 22:30 41.22163 28.72858 1119 ft 150 kts
2026-05-05 22:30 41.23207 28.72848 915 ft 150 kts 359°
2026-05-05 22:30 41.24241 28.72830 699 ft 149 kts 358°
2026-05-05 22:31 41.25283 28.72800 529 ft 149 kts 359°
2026-05-05 22:31 41.26320 28.72775 370 ft 149 kts 359°
2026-05-05 22:31 41.27264 28.72753 331 ft 112 kts 359°
2026-05-05 22:31 41.27739 28.72742 334 ft 32 kts 359°
2026-05-05 22:32 41.27885 28.72743 334 ft 30 kts
2026-05-05 22:32 41.28050 28.72822 331 ft 15 kts 27°
2026-05-05 22:32 41.28129 28.72897 333 ft 8 kts 59°
2026-05-05 22:32 41.28110 28.72959 334 ft 8 kts 156°
2026-05-05 22:33 41.28047 28.72961 334 ft 10 kts 179°
2026-05-05 22:33 41.28007 28.72962 334 ft 0 kts 179°
2026-05-05 22:34 41.28006 28.72962 332 ft 1 kts 179°
2026-05-05 22:34 41.27996 28.72962 334 ft 2 kts 179°
2026-05-05 22:34 41.27974 28.72963 334 ft 4 kts 179°
2026-05-05 22:34 41.27940 28.72964 334 ft 6 kts 179°
2026-05-05 22:35 41.27894 28.72964 330 ft 7 kts 179°
2026-05-05 22:35 41.27837 28.72966 331 ft 9 kts 179°
2026-05-05 22:35 41.27769 28.72967 334 ft 10 kts 179°
2026-05-05 22:35 41.27691 28.72969 331 ft 12 kts 179°
2026-05-05 22:36 41.27602 28.72971 331 ft 13 kts 179°
2026-05-05 22:36 41.27525 28.72973 332 ft 12 kts 179°
2026-05-05 22:36 41.27445 28.72975 331 ft 10 kts 179°
2026-05-05 22:36 41.27393 28.73032 334 ft 11 kts 101°
2026-05-05 22:37 41.27392 28.73140 332 ft 13 kts 89°
2026-05-05 22:37 41.27394 28.73264 334 ft 14 kts 89°
2026-05-05 22:37 41.27395 28.73400 330 ft 15 kts 89°
2026-05-05 22:37 41.27397 28.73548 334 ft 17 kts 89°
2026-05-05 22:38 41.27400 28.73701 334 ft 11 kts 88°
2026-05-05 22:38 41.27403 28.73794 334 ft 11 kts 88°
2026-05-05 22:38 41.27405 28.73898 334 ft 12 kts 90°
2026-05-05 22:38 41.27404 28.74012 334 ft 12 kts 91°
2026-05-05 22:39 41.27405 28.74120 334 ft 12 kts 89°
2026-05-05 22:39 41.27406 28.74234 334 ft 13 kts 89°
2026-05-05 22:39 41.27408 28.74353 333 ft 13 kts 89°
2026-05-05 22:39 41.27410 28.74474 334 ft 10 kts 89°
2026-05-05 22:40 41.27408 28.74554 334 ft 8 kts 102°
2026-05-05 22:40 41.27367 28.74598 332 ft 9 kts 173°
2026-05-05 22:40 41.27304 28.74599 334 ft 10 kts 179°
2026-05-05 22:40 41.27235 28.74601 332 ft 10 kts 179°
2026-05-05 22:41 41.27160 28.74602 330 ft 11 kts 179°
2026-05-05 22:41 41.27079 28.74604 332 ft 12 kts 179°
2026-05-05 22:41 41.27002 28.74610 331 ft 9 kts 164°
2026-05-05 22:41 41.26975 28.74672 330 ft 8 kts 97°
2026-05-05 22:42 41.26975 28.74752 334 ft 9 kts 89°
2026-05-05 22:42 41.26976 28.74840 333 ft 10 kts 89°
2026-05-05 22:42 41.26977 28.74934 333 ft 11 kts 89°
2026-05-05 22:42 41.26979 28.75036 332 ft 11 kts 89°
2026-05-05 22:43 41.26968 28.75126 334 ft 10 kts 126°
2026-05-05 22:43 41.26899 28.75151 333 ft 11 kts 179°
2026-05-05 22:43 41.26820 28.75151 333 ft 12 kts 178°
2026-05-05 22:43 41.26735 28.75154 334 ft 13 kts 179°
2026-05-05 22:44 41.26679 28.75153 334 ft 5 kts 191°
2026-05-05 22:44 41.26670 28.75110 334 ft 6 kts 283°
2026-05-05 22:44 41.26684 28.75053 331 ft 6 kts 287°
2026-05-05 22:44 41.26687 28.75040 333 ft 0 kts 287°